owner,sensor,date,latitude,longitude,vertical_datum,wind_speed,wind_to_direction,wind_speed_of_gust,qcFlag 
COMPS,ioos:station:USF.COMPS:ANM:1,2011-03-01T00:00:00Z,27.5400,-82.7400,11.0,2.6,180.0,,'1111122,1111122,1111122' 
COMPS,ioos:station:USF.COMPS:ANM:1,2011-03-01T01:00:00Z,27.5400,-82.7400,11.0,2.1,180.0,,'1111122,1111122,1111122' 
COMPS,ioos:station:USF.COMPS:ANM:1,2011-03-01T02:00:00Z,27.5400,-82.7400,11.0,2.1,180.0,,'1111122,1111122,1111122' 
COMPS,ioos:station:USF.COMPS:ANM:1,2011-03-01T03:00:00Z,27.5400,-82.7400,11.0,2.1,180.0,,'1111122,1111122,1111122' 
COMPS,ioos:station:USF.COMPS:ANM:1,2011-03-01T04:00:00Z,27.5400,-82.7400,11.0,2.6,180.0,,'1111122,1111122,1111122' 
COMPS,ioos:station:USF.COMPS:ANM:1,2011-03-01T05:00:00Z,27.5400,-82.7400,11.0,2.6,180.0,,'1111122,1111122,1111122' 
COMPS,ioos:station:USF.COMPS:ANM:1,2011-03-01T06:00:00Z,27.5400,-82.7400,11.0,2.6,180.0,,'1111122,1111122,1111122' 
COMPS,ioos:station:USF.COMPS:ANM:1,2011-03-01T07:00:00Z,27.5400,-82.7400,11.0,3.1,190.0,,'1111122,1111122,1111122' 
COMPS,ioos:station:USF.COMPS:ANM:1,2011-03-01T08:00:00Z,27.5400,-82.7400,11.0,3.1,190.0,,'1111122,1111122,1111122' 
COMPS,ioos:station:USF.COMPS:ANM:1,2011-03-01T09:00:00Z,27.5400,-82.7400,11.0,2.6,190.0,,'1111122,1111122,1111122' 
COMPS,ioos:station:USF.COMPS:ANM:1,2011-03-01T10:00:00Z,27.5400,-82.7400,11.0,3.6,180.0,,'1111122,1111122,1111122' 
COMPS,ioos:station:USF.COMPS:ANM:1,2011-03-01T11:00:00Z,27.5400,-82.7400,11.0,3.6,180.0,,'1111122,1111122,1111122' 
COMPS,ioos:station:USF.COMPS:ANM:1,2011-03-01T12:00:00Z,27.5400,-82.7400,11.0,4.1,180.0,,'1111122,1111122,1111122' 
COMPS,ioos:station:USF.COMPS:ANM:1,2011-03-01T13:00:00Z,27.5400,-82.7400,11.0,3.1,200.0,,'1111122,1111122,1111122' 
COMPS,ioos:station:USF.COMPS:ANM:1,2011-03-01T14:00:00Z,27.5400,-82.7400,11.0,3.1,190.0,,'1111122,1111122,1111122' 
COMPS,ioos:station:USF.COMPS:ANM:1,2011-03-01T15:00:00Z,27.5400,-82.7400,11.0,3.6,210.0,,'1111122,1111122,1111122' 
COMPS,ioos:station:USF.COMPS:ANM:1,2011-03-01T16:00:00Z,27.5400,-82.7400,11.0,2.1,230.0,,'1111122,1111122,1111122' 
COMPS,ioos:station:USF.COMPS:ANM:1,2011-03-01T17:00:00Z,27.5400,-82.7400,11.0,2.1,210.0,,'1111122,1111122,1111122' 
COMPS,ioos:station:USF.COMPS:ANM:1,2011-03-01T18:00:00Z,27.5400,-82.7400,11.0,3.6,240.0,,'1111122,1111122,1111122' 
COMPS,ioos:station:USF.COMPS:ANM:1,2011-03-01T19:00:00Z,27.5400,-82.7400,11.0,3.6,300.0,,'1111122,1111122,1111122' 
COMPS,ioos:station:USF.COMPS:ANM:1,2011-03-01T20:00:00Z,27.5400,-82.7400,11.0,3.1,290.0,,'1111122,1111122,1111122' 
COMPS,ioos:station:USF.COMPS:ANM:1,2011-03-01T21:00:00Z,27.5400,-82.7400,11.0,3.1,310.0,,'1111122,1111122,1111122' 
COMPS,ioos:station:USF.COMPS:ANM:1,2011-03-01T22:00:00Z,27.5400,-82.7400,11.0,7.7,320.0,,'1111122,1111122,1111122' 
COMPS,ioos:station:USF.COMPS:ANM:1,2011-03-01T23:00:00Z,27.5400,-82.7400,11.0,7.7,330.0,,'1111122,1111122,1111122' 
COMPS,ioos:station:USF.COMPS:ANM:1,2011-03-02T00:00:00Z,27.5400,-82.7400,11.0,5.7,330.0,,'1111122,1111122,1111122' 
COMPS,ioos:station:USF.COMPS:ANM:1,2011-03-02T01:00:00Z,27.5400,-82.7400,11.0,6.7,350.0,,'1111122,1111122,1111122' 
COMPS,ioos:station:USF.COMPS:ANM:1,2011-03-02T02:00:00Z,27.5400,-82.7400,11.0,10.8,60.0,,'1111122,1111122,1111122' 
COMPS,ioos:station:USF.COMPS:ANM:1,2011-03-02T03:00:00Z,27.5400,-82.7400,11.0,8.7,60.0,,'1111122,1111122,1111122' 
COMPS,ioos:station:USF.COMPS:ANM:1,2011-03-02T04:00:00Z,27.5400,-82.7400,11.0,10.3,50.0,,'1111122,1111122,1111122' 
COMPS,ioos:station:USF.COMPS:ANM:1,2011-03-02T05:00:00Z,27.5400,-82.7400,11.0,9.8,50.0,,'1111122,1111122,1111122' 
COMPS,ioos:station:USF.COMPS:ANM:1,2011-03-02T06:00:00Z,27.5400,-82.7400,11.0,9.8,50.0,,'1111122,1111122,1111122' 
COMPS,ioos:station:USF.COMPS:ANM:1,2011-03-02T07:00:00Z,27.5400,-82.7400,11.0,10.8,40.0,,'1111122,1111122,1111122' 
COMPS,ioos:station:USF.COMPS:ANM:1,2011-03-02T08:00:00Z,27.5400,-82.7400,11.0,10.8,50.0,,'1111122,1111122,1111122' 
COMPS,ioos:station:USF.COMPS:ANM:1,2011-03-02T09:00:00Z,27.5400,-82.7400,11.0,9.8,40.0,,'1111122,1111122,1111122' 
COMPS,ioos:station:USF.COMPS:ANM:1,2011-03-02T10:00:00Z,27.5400,-82.7400,11.0,9.3,50.0,,'1111122,1111122,1111122' 
COMPS,ioos:station:USF.COMPS:ANM:1,2011-03-02T11:00:00Z,27.5400,-82.7400,11.0,8.7,50.0,,'1111122,1111122,1111122' 
COMPS,ioos:station:USF.COMPS:ANM:1,2011-03-02T12:00:00Z,27.5400,-82.7400,11.0,8.2,50.0,,'1111122,1111122,1111122' 
COMPS,ioos:station:USF.COMPS:ANM:1,2011-03-02T13:00:00Z,27.5400,-82.7400,11.0,10.3,50.0,,'1111122,1111122,1111122' 
COMPS,ioos:station:USF.COMPS:ANM:1,2011-03-02T14:00:00Z,27.5400,-82.7400,11.0,8.7,50.0,,'1111122,1111122,1111122' 
COMPS,ioos:station:USF.COMPS:ANM:1,2011-03-02T15:00:00Z,27.5400,-82.7400,11.0,7.7,50.0,,'1111122,1111122,1111122' 
COMPS,ioos:station:USF.COMPS:ANM:1,2011-03-02T16:00:00Z,27.5400,-82.7400,11.0,5.7,40.0,,'1111122,1111122,1111122' 
COMPS,ioos:station:USF.COMPS:ANM:1,2011-03-02T17:00:00Z,27.5400,-82.7400,11.0,6.2,30.0,,'1111122,1111122,1111122' 
COMPS,ioos:station:USF.COMPS:ANM:1,2011-03-02T18:00:00Z,27.5400,-82.7400,11.0,6.7,80.0,,'1111122,1111122,1111122' 
COMPS,ioos:station:USF.COMPS:ANM:1,2011-03-02T19:00:00Z,27.5400,-82.7400,11.0,6.2,80.0,,'1111122,1111122,1111122' 
COMPS,ioos:station:USF.COMPS:ANM:1,2011-03-02T20:00:00Z,27.5400,-82.7400,11.0,5.1,50.0,,'1111122,1111122,1111122' 
COMPS,ioos:station:USF.COMPS:ANM:1,2011-03-02T21:00:00Z,27.5400,-82.7400,11.0,7.2,70.0,,'1111122,1111122,1111122' 
COMPS,ioos:station:USF.COMPS:ANM:1,2011-03-02T22:00:00Z,27.5400,-82.7400,11.0,7.2,60.0,,'1111122,1111122,1111122' 
COMPS,ioos:station:USF.COMPS:ANM:1,2011-03-02T23:00:00Z,27.5400,-82.7400,11.0,7.7,70.0,,'1111122,1111122,1111122' 
COMPS,ioos:station:USF.COMPS:ANM:1,2011-03-03T00:00:00Z,27.5400,-82.7400,11.0,10.8,60.0,,'1111122,1111122,1111122' 
COMPS,ioos:station:USF.COMPS:ANM:1,2011-03-03T01:00:00Z,27.5400,-82.7400,11.0,10.3,70.0,,'1111122,1111122,1111122' 
COMPS,ioos:station:USF.COMPS:ANM:1,2011-03-03T02:00:00Z,27.5400,-82.7400,11.0,10.3,80.0,,'1111122,1111122,1111122' 
COMPS,ioos:station:USF.COMPS:ANM:1,2011-03-03T03:00:00Z,27.5400,-82.7400,11.0,10.3,80.0,,'1111122,1111122,1111122' 
COMPS,ioos:station:USF.COMPS:ANM:1,2011-03-03T04:00:00Z,27.5400,-82.7400,11.0,9.8,70.0,,'1111122,1111122,1111122' 
COMPS,ioos:station:USF.COMPS:ANM:1,2011-03-03T05:00:00Z,27.5400,-82.7400,11.0,9.8,70.0,,'1111122,1111122,1111122' 
COMPS,ioos:station:USF.COMPS:ANM:1,2011-03-03T06:00:00Z,27.5400,-82.7400,11.0,8.7,80.0,,'1111122,1111122,1111122' 
COMPS,ioos:station:USF.COMPS:ANM:1,2011-03-03T08:00:00Z,27.5400,-82.7400,11.0,7.2,60.0,,'1111122,1111122,1111122' 
COMPS,ioos:station:USF.COMPS:ANM:1,2011-03-03T09:00:00Z,27.5400,-82.7400,11.0,8.2,60.0,,'1111122,1111122,1111122' 
COMPS,ioos:station:USF.COMPS:ANM:1,2011-03-03T10:00:00Z,27.5400,-82.7400,11.0,8.2,70.0,,'1111122,1111122,1111122' 
COMPS,ioos:station:USF.COMPS:ANM:1,2011-03-03T11:00:00Z,27.5400,-82.7400,11.0,9.3,60.0,,'1111122,1111122,1111122' 
COMPS,ioos:station:USF.COMPS:ANM:1,2011-03-03T12:00:00Z,27.5400,-82.7400,11.0,8.7,60.0,,'1111122,1111122,1111122' 
COMPS,ioos:station:USF.COMPS:ANM:1,2011-03-03T13:00:00Z,27.5400,-82.7400,11.0,10.8,60.0,,'1111122,1111122,1111122' 
COMPS,ioos:station:USF.COMPS:ANM:1,2011-03-03T15:00:00Z,27.5400,-82.7400,11.0,8.7,60.0,,'1111122,1111122,1111122' 
COMPS,ioos:station:USF.COMPS:ANM:1,2011-03-03T16:00:00Z,27.5400,-82.7400,11.0,11.3,90.0,,'1111122,1111122,1111122' 
COMPS,ioos:station:USF.COMPS:ANM:1,2011-03-03T17:00:00Z,27.5400,-82.7400,11.0,10.3,80.0,,'1111122,1111122,1111122' 
COMPS,ioos:station:USF.COMPS:ANM:1,2011-03-03T18:00:00Z,27.5400,-82.7400,11.0,8.7,90.0,,'1111122,1111122,1111122' 
COMPS,ioos:station:USF.COMPS:ANM:1,2011-03-03T19:00:00Z,27.5400,-82.7400,11.0,9.3,70.0,,'1111122,1111122,1111122' 
COMPS,ioos:station:USF.COMPS:ANM:1,2011-03-03T20:00:00Z,27.5400,-82.7400,11.0,8.2,90.0,,'1111122,1111122,1111122' 
COMPS,ioos:station:USF.COMPS:ANM:1,2011-03-03T21:00:00Z,27.5400,-82.7400,11.0,7.2,80.0,,'1111122,1111122,1111122' 
COMPS,ioos:station:USF.COMPS:ANM:1,2011-03-03T22:00:00Z,27.5400,-82.7400,11.0,9.3,80.0,,'1111122,1111122,1111122' 
COMPS,ioos:station:USF.COMPS:ANM:1,2011-03-03T23:00:00Z,27.5400,-82.7400,11.0,9.3,70.0,,'1111122,1111122,1111122' 
COMPS,ioos:station:USF.COMPS:ANM:1,2011-03-04T00:00:00Z,27.5400,-82.7400,11.0,8.7,70.0,,'1111122,1111122,1111122' 
COMPS,ioos:station:USF.COMPS:ANM:1,2011-03-04T01:00:00Z,27.5400,-82.7400,11.0,10.8,90.0,,'1111122,1111122,1111122' 
COMPS,ioos:station:USF.COMPS:ANM:1,2011-03-04T02:00:00Z,27.5400,-82.7400,11.0,9.8,80.0,,'1111122,1111122,1111122' 
COMPS,ioos:station:USF.COMPS:ANM:1,2011-03-04T03:00:00Z,27.5400,-82.7400,11.0,9.8,80.0,,'1111122,1111122,1111122' 
COMPS,ioos:station:USF.COMPS:ANM:1,2011-03-04T04:00:00Z,27.5400,-82.7400,11.0,9.8,90.0,,'1111122,1111122,1111122' 
COMPS,ioos:station:USF.COMPS:ANM:1,2011-03-04T05:00:00Z,27.5400,-82.7400,11.0,8.7,100.0,,'1111122,1111122,1111122' 
COMPS,ioos:station:USF.COMPS:ANM:1,2011-03-04T06:00:00Z,27.5400,-82.7400,11.0,8.7,90.0,,'1111122,1111122,1111122' 
COMPS,ioos:station:USF.COMPS:ANM:1,2011-03-04T07:00:00Z,27.5400,-82.7400,11.0,7.7,90.0,,'1111122,1111122,1111122' 
COMPS,ioos:station:USF.COMPS:ANM:1,2011-03-04T08:00:00Z,27.5400,-82.7400,11.0,8.2,80.0,,'1111122,1111122,1111122' 
COMPS,ioos:station:USF.COMPS:ANM:1,2011-03-04T09:00:00Z,27.5400,-82.7400,11.0,8.7,70.0,,'1111122,1111122,1111122' 
COMPS,ioos:station:USF.COMPS:ANM:1,2011-03-04T10:00:00Z,27.5400,-82.7400,11.0,8.7,70.0,,'1111122,1111122,1111122' 
COMPS,ioos:station:USF.COMPS:ANM:1,2011-03-04T11:00:00Z,27.5400,-82.7400,11.0,9.3,70.0,,'1111122,1111122,1111122' 
COMPS,ioos:station:USF.COMPS:ANM:1,2011-03-04T12:00:00Z,27.5400,-82.7400,11.0,7.7,80.0,,'1111122,1111122,1111122' 
COMPS,ioos:station:USF.COMPS:ANM:1,2011-03-04T13:00:00Z,27.5400,-82.7400,11.0,6.7,90.0,,'1111122,1111122,1111122' 
COMPS,ioos:station:USF.COMPS:ANM:1,2011-03-04T14:00:00Z,27.5400,-82.7400,11.0,7.2,80.0,,'1111122,1111122,1111122' 
COMPS,ioos:station:USF.COMPS:ANM:1,2011-03-04T15:00:00Z,27.5400,-82.7400,11.0,7.2,90.0,,'1111122,1111122,1111122' 
COMPS,ioos:station:USF.COMPS:ANM:1,2011-03-04T16:00:00Z,27.5400,-82.7400,11.0,8.2,120.0,,'1111122,1111122,1111122' 
COMPS,ioos:station:USF.COMPS:ANM:1,2011-03-04T17:00:00Z,27.5400,-82.7400,11.0,9.3,90.0,,'1111122,1111122,1111122' 
COMPS,ioos:station:USF.COMPS:ANM:1,2011-03-04T18:00:00Z,27.5400,-82.7400,11.0,9.3,90.0,,'1111122,1111122,1111122' 
COMPS,ioos:station:USF.COMPS:ANM:1,2011-03-04T19:00:00Z,27.5400,-82.7400,11.0,8.7,90.0,,'1111122,1111122,1111122' 
COMPS,ioos:station:USF.COMPS:ANM:1,2011-03-04T20:00:00Z,27.5400,-82.7400,11.0,8.2,90.0,,'1111122,1111122,1111122' 
COMPS,ioos:station:USF.COMPS:ANM:1,2011-03-04T21:00:00Z,27.5400,-82.7400,11.0,6.7,90.0,,'1111122,1111122,1111122' 
COMPS,ioos:station:USF.COMPS:ANM:1,2011-03-04T22:00:00Z,27.5400,-82.7400,11.0,7.7,90.0,,'1111122,1111122,1111122' 
COMPS,ioos:station:USF.COMPS:ANM:1,2011-03-04T23:00:00Z,27.5400,-82.7400,11.0,8.2,100.0,,'1111122,1111122,1111122' 
COMPS,ioos:station:USF.COMPS:ANM:1,2011-03-05T00:00:00Z,27.5400,-82.7400,11.0,9.3,110.0,,'1111122,1111122,1111122' 
COMPS,ioos:station:USF.COMPS:ANM:1,2011-03-05T01:00:00Z,27.5400,-82.7400,11.0,7.7,100.0,,'1111122,1111122,1111122' 
COMPS,ioos:station:USF.COMPS:ANM:1,2011-03-05T02:00:00Z,27.5400,-82.7400,11.0,8.7,90.0,,'1111122,1111122,1111122' 
COMPS,ioos:station:USF.COMPS:ANM:1,2011-03-05T03:00:00Z,27.5400,-82.7400,11.0,9.8,90.0,,'1111122,1111122,1111122' 
COMPS,ioos:station:USF.COMPS:ANM:1,2011-03-05T04:00:00Z,27.5400,-82.7400,11.0,8.7,80.0,,'1111122,1111122,1111122' 
COMPS,ioos:station:USF.COMPS:ANM:1,2011-03-05T05:00:00Z,27.5400,-82.7400,11.0,9.3,80.0,,'1111122,1111122,1111122' 
COMPS,ioos:station:USF.COMPS:ANM:1,2011-03-05T06:00:00Z,27.5400,-82.7400,11.0,9.3,80.0,,'1111122,1111122,1111122' 
COMPS,ioos:station:USF.COMPS:ANM:1,2011-03-05T07:00:00Z,27.5400,-82.7400,11.0,8.2,80.0,,'1111122,1111122,1111122' 
COMPS,ioos:station:USF.COMPS:ANM:1,2011-03-05T08:00:00Z,27.5400,-82.7400,11.0,8.2,80.0,,'1111122,1111122,1111122' 
COMPS,ioos:station:USF.COMPS:ANM:1,2011-03-05T09:00:00Z,27.5400,-82.7400,11.0,8.7,90.0,,'1111122,1111122,1111122' 
COMPS,ioos:station:USF.COMPS:ANM:1,2011-03-05T10:00:00Z,27.5400,-82.7400,11.0,7.7,90.0,,'1111122,1111122,1111122' 
COMPS,ioos:station:USF.COMPS:ANM:1,2011-03-05T11:00:00Z,27.5400,-82.7400,11.0,7.2,90.0,,'1111122,1111122,1111122' 
COMPS,ioos:station:USF.COMPS:ANM:1,2011-03-05T12:00:00Z,27.5400,-82.7400,11.0,6.7,90.0,,'1111122,1111122,1111122' 
COMPS,ioos:station:USF.COMPS:ANM:1,2011-03-05T13:00:00Z,27.5400,-82.7400,11.0,8.2,90.0,,'1111122,1111122,1111122' 
COMPS,ioos:station:USF.COMPS:ANM:1,2011-03-05T14:00:00Z,27.5400,-82.7400,11.0,7.7,100.0,,'1111122,1111122,1111122' 
COMPS,ioos:station:USF.COMPS:ANM:1,2011-03-05T15:00:00Z,27.5400,-82.7400,11.0,7.2,120.0,,'1111122,1111122,1111122' 
COMPS,ioos:station:USF.COMPS:ANM:1,2011-03-05T16:00:00Z,27.5400,-82.7400,11.0,8.2,120.0,,'1111122,1111122,1111122' 
COMPS,ioos:station:USF.COMPS:ANM:1,2011-03-05T17:00:00Z,27.5400,-82.7400,11.0,5.7,120.0,,'1111122,1111122,1111122' 
COMPS,ioos:station:USF.COMPS:ANM:1,2011-03-05T18:00:00Z,27.5400,-82.7400,11.0,3.6,180.0,,'1111122,1111122,1111122' 
COMPS,ioos:station:USF.COMPS:ANM:1,2011-03-05T19:00:00Z,27.5400,-82.7400,11.0,3.1,200.0,,'1111122,1111122,1111122' 
COMPS,ioos:station:USF.COMPS:ANM:1,2011-03-05T20:00:00Z,27.5400,-82.7400,11.0,2.1,230.0,,'1111122,1111122,1111122' 
COMPS,ioos:station:USF.COMPS:ANM:1,2011-03-05T21:00:00Z,27.5400,-82.7400,11.0,3.1,200.0,,'1111122,1111122,1111122' 
COMPS,ioos:station:USF.COMPS:ANM:1,2011-03-05T22:00:00Z,27.5400,-82.7400,11.0,2.6,200.0,,'1111122,1111122,1111122' 
COMPS,ioos:station:USF.COMPS:ANM:1,2011-03-05T23:00:00Z,27.5400,-82.7400,11.0,2.6,180.0,,'1111122,1111122,1111122' 
COMPS,ioos:station:USF.COMPS:ANM:1,2011-03-06T00:00:00Z,27.5400,-82.7400,11.0,2.1,180.0,,'1111122,1111122,1111122' 
COMPS,ioos:station:USF.COMPS:ANM:1,2011-03-06T01:00:00Z,27.5400,-82.7400,11.0,2.1,140.0,,'1111122,1111122,1111122' 
COMPS,ioos:station:USF.COMPS:ANM:1,2011-03-06T02:00:00Z,27.5400,-82.7400,11.0,1.5,140.0,,'1111122,1111122,1111122' 
COMPS,ioos:station:USF.COMPS:ANM:1,2011-03-06T03:00:00Z,27.5400,-82.7400,11.0,4.1,110.0,,'1111122,1111122,1111122' 
COMPS,ioos:station:USF.COMPS:ANM:1,2011-03-06T04:00:00Z,27.5400,-82.7400,11.0,3.1,120.0,,'1111122,1111122,1111122' 
COMPS,ioos:station:USF.COMPS:ANM:1,2011-03-06T05:00:00Z,27.5400,-82.7400,11.0,3.6,140.0,,'1111122,1111122,1111122' 
COMPS,ioos:station:USF.COMPS:ANM:1,2011-03-06T06:00:00Z,27.5400,-82.7400,11.0,4.1,140.0,,'1111122,1111122,1111122' 
COMPS,ioos:station:USF.COMPS:ANM:1,2011-03-06T07:00:00Z,27.5400,-82.7400,11.0,3.1,140.0,,'1111122,1111122,1111122' 
COMPS,ioos:station:USF.COMPS:ANM:1,2011-03-06T08:00:00Z,27.5400,-82.7400,11.0,2.6,140.0,,'1111122,1111122,1111122' 
COMPS,ioos:station:USF.COMPS:ANM:1,2011-03-06T09:00:00Z,27.5400,-82.7400,11.0,3.6,150.0,,'1111122,1111122,1111122' 
COMPS,ioos:station:USF.COMPS:ANM:1,2011-03-06T10:00:00Z,27.5400,-82.7400,11.0,4.1,150.0,,'1111122,1111122,1111122' 
COMPS,ioos:station:USF.COMPS:ANM:1,2011-03-06T11:00:00Z,27.5400,-82.7400,11.0,3.6,260.0,,'1111122,1111122,1111122' 
COMPS,ioos:station:USF.COMPS:ANM:1,2011-03-06T12:00:00Z,27.5400,-82.7400,11.0,2.6,260.0,,'1111122,1111122,1111122' 
COMPS,ioos:station:USF.COMPS:ANM:1,2011-03-06T13:00:00Z,27.5400,-82.7400,11.0,4.1,140.0,,'1111122,1111122,1111122' 
COMPS,ioos:station:USF.COMPS:ANM:1,2011-03-06T14:00:00Z,27.5400,-82.7400,11.0,3.6,140.0,,'1111122,1111122,1111122' 
COMPS,ioos:station:USF.COMPS:ANM:1,2011-03-06T15:00:00Z,27.5400,-82.7400,11.0,3.6,170.0,,'1111122,1111122,1111122' 
COMPS,ioos:station:USF.COMPS:ANM:1,2011-03-06T16:00:00Z,27.5400,-82.7400,11.0,3.6,190.0,,'1111122,1111122,1111122' 
COMPS,ioos:station:USF.COMPS:ANM:1,2011-03-06T17:00:00Z,27.5400,-82.7400,11.0,4.6,200.0,,'1111122,1111122,1111122' 
COMPS,ioos:station:USF.COMPS:ANM:1,2011-03-06T18:00:00Z,27.5400,-82.7400,11.0,4.1,220.0,,'1111122,1111122,1111122' 
COMPS,ioos:station:USF.COMPS:ANM:1,2011-03-06T19:00:00Z,27.5400,-82.7400,11.0,3.6,230.0,,'1111122,1111122,1111122' 
COMPS,ioos:station:USF.COMPS:ANM:1,2011-03-06T20:00:00Z,27.5400,-82.7400,11.0,4.1,250.0,,'1111122,1111122,1111122' 
COMPS,ioos:station:USF.COMPS:ANM:1,2011-03-06T22:00:00Z,27.5400,-82.7400,11.0,8.7,310.0,,'1111122,1111122,1111122' 
COMPS,ioos:station:USF.COMPS:ANM:1,2011-03-06T23:00:00Z,27.5400,-82.7400,11.0,8.2,310.0,,'1111122,1111122,1111122' 
COMPS,ioos:station:USF.COMPS:ANM:1,2011-03-07T00:00:00Z,27.5400,-82.7400,11.0,7.7,320.0,,'1111122,1111122,1111122' 
COMPS,ioos:station:USF.COMPS:ANM:1,2011-03-07T01:00:00Z,27.5400,-82.7400,11.0,6.7,310.0,,'1111122,1111122,1111122' 
COMPS,ioos:station:USF.COMPS:ANM:1,2011-03-07T02:00:00Z,27.5400,-82.7400,11.0,7.2,310.0,,'1111122,1111122,1111122' 
COMPS,ioos:station:USF.COMPS:ANM:1,2011-03-07T03:00:00Z,27.5400,-82.7400,11.0,6.2,320.0,,'1111122,1111122,1111122' 
COMPS,ioos:station:USF.COMPS:ANM:1,2011-03-07T04:00:00Z,27.5400,-82.7400,11.0,5.1,300.0,,'1111122,1111122,1111122' 
COMPS,ioos:station:USF.COMPS:ANM:1,2011-03-07T05:00:00Z,27.5400,-82.7400,11.0,6.2,290.0,,'1111122,1111122,1111122' 
COMPS,ioos:station:USF.COMPS:ANM:1,2011-03-07T06:00:00Z,27.5400,-82.7400,11.0,6.2,310.0,,'1111122,1111122,1111122' 
COMPS,ioos:station:USF.COMPS:ANM:1,2011-03-07T07:00:00Z,27.5400,-82.7400,11.0,6.2,330.0,,'1111122,1111122,1111122' 
COMPS,ioos:station:USF.COMPS:ANM:1,2011-03-07T08:00:00Z,27.5400,-82.7400,11.0,6.7,310.0,,'1111122,1111122,1111122' 
COMPS,ioos:station:USF.COMPS:ANM:1,2011-03-07T09:00:00Z,27.5400,-82.7400,11.0,6.2,320.0,,'1111122,1111122,1111122' 
COMPS,ioos:station:USF.COMPS:ANM:1,2011-03-07T10:00:00Z,27.5400,-82.7400,11.0,6.2,330.0,,'1111122,1111122,1111122' 
COMPS,ioos:station:USF.COMPS:ANM:1,2011-03-07T11:00:00Z,27.5400,-82.7400,11.0,6.7,10.0,,'1111122,1111122,1111122' 
COMPS,ioos:station:USF.COMPS:ANM:1,2011-03-07T12:00:00Z,27.5400,-82.7400,11.0,7.7,350.0,,'1111122,1111122,1111122' 
COMPS,ioos:station:USF.COMPS:ANM:1,2011-03-07T13:00:00Z,27.5400,-82.7400,11.0,5.7,360.0,,'1111122,1111122,1111122' 
COMPS,ioos:station:USF.COMPS:ANM:1,2011-03-07T16:00:00Z,27.5400,-82.7400,11.0,2.6,20.0,,'1111122,1111122,1111122' 
COMPS,ioos:station:USF.COMPS:ANM:1,2011-03-07T17:00:00Z,27.5400,-82.7400,11.0,1.0,30.0,,'1111122,1111122,1111122' 
COMPS,ioos:station:USF.COMPS:ANM:1,2011-03-07T18:00:00Z,27.5400,-82.7400,11.0,1.5,310.0,,'1111122,1111122,1111122' 
COMPS,ioos:station:USF.COMPS:ANM:1,2011-03-07T19:00:00Z,27.5400,-82.7400,11.0,2.6,310.0,,'1111122,1111122,1111122' 
COMPS,ioos:station:USF.COMPS:ANM:1,2011-03-07T20:00:00Z,27.5400,-82.7400,11.0,3.6,310.0,,'1111122,1111122,1111122' 
COMPS,ioos:station:USF.COMPS:ANM:1,2011-03-07T21:00:00Z,27.5400,-82.7400,11.0,5.1,310.0,,'1111122,1111122,1111122' 
COMPS,ioos:station:USF.COMPS:ANM:1,2011-03-07T22:00:00Z,27.5400,-82.7400,11.0,5.7,320.0,,'1111122,1111122,1111122' 
COMPS,ioos:station:USF.COMPS:ANM:1,2011-03-07T23:00:00Z,27.5400,-82.7400,11.0,5.7,320.0,,'1111122,1111122,1111122' 
COMPS,ioos:station:USF.COMPS:ANM:1,2011-03-08T00:00:00Z,27.5400,-82.7400,11.0,6.7,330.0,,'1111122,1111122,1111122' 
COMPS,ioos:station:USF.COMPS:ANM:1,2011-03-08T01:00:00Z,27.5400,-82.7400,11.0,8.2,340.0,,'1111122,1111122,1111122' 
COMPS,ioos:station:USF.COMPS:ANM:1,2011-03-08T02:00:00Z,27.5400,-82.7400,11.0,6.2,350.0,,'1111122,1111122,1111122' 
COMPS,ioos:station:USF.COMPS:ANM:1,2011-03-08T03:00:00Z,27.5400,-82.7400,11.0,5.7,20.0,,'1111122,1111122,1111122' 
COMPS,ioos:station:USF.COMPS:ANM:1,2011-03-08T04:00:00Z,27.5400,-82.7400,11.0,9.3,70.0,,'1111122,1111122,1111122' 
COMPS,ioos:station:USF.COMPS:ANM:1,2011-03-08T05:00:00Z,27.5400,-82.7400,11.0,8.2,60.0,,'1111122,1111122,1111122' 
COMPS,ioos:station:USF.COMPS:ANM:1,2011-03-08T06:00:00Z,27.5400,-82.7400,11.0,8.7,70.0,,'1111122,1111122,1111122' 
COMPS,ioos:station:USF.COMPS:ANM:1,2011-03-08T07:00:00Z,27.5400,-82.7400,11.0,8.2,70.0,,'1111122,1111122,1111122' 
COMPS,ioos:station:USF.COMPS:ANM:1,2011-03-08T08:00:00Z,27.5400,-82.7400,11.0,7.7,70.0,,'1111122,1111122,1111122' 
COMPS,ioos:station:USF.COMPS:ANM:1,2011-03-08T09:00:00Z,27.5400,-82.7400,11.0,7.2,70.0,,'1111122,1111122,1111122' 
COMPS,ioos:station:USF.COMPS:ANM:1,2011-03-08T10:00:00Z,27.5400,-82.7400,11.0,9.3,80.0,,'1111122,1111122,1111122' 
COMPS,ioos:station:USF.COMPS:ANM:1,2011-03-08T11:00:00Z,27.5400,-82.7400,11.0,7.2,70.0,,'1111122,1111122,1111122' 
COMPS,ioos:station:USF.COMPS:ANM:1,2011-03-08T13:00:00Z,27.5400,-82.7400,11.0,7.2,60.0,,'1111122,1111122,1111122' 
COMPS,ioos:station:USF.COMPS:ANM:1,2011-03-08T14:00:00Z,27.5400,-82.7400,11.0,7.2,70.0,,'1111122,1111122,1111122' 
COMPS,ioos:station:USF.COMPS:ANM:1,2011-03-08T15:00:00Z,27.5400,-82.7400,11.0,5.7,70.0,,'1111122,1111122,1111122' 
COMPS,ioos:station:USF.COMPS:ANM:1,2011-03-08T16:00:00Z,27.5400,-82.7400,11.0,7.2,80.0,,'1111122,1111122,1111122' 
COMPS,ioos:station:USF.COMPS:ANM:1,2011-03-08T17:00:00Z,27.5400,-82.7400,11.0,6.2,90.0,,'1111122,1111122,1111122' 
COMPS,ioos:station:USF.COMPS:ANM:1,2011-03-08T18:00:00Z,27.5400,-82.7400,11.0,4.1,90.0,,'1111122,1111122,1111122' 
COMPS,ioos:station:USF.COMPS:ANM:1,2011-03-08T19:00:00Z,27.5400,-82.7400,11.0,2.1,120.0,,'1111122,1111122,1111122' 
COMPS,ioos:station:USF.COMPS:ANM:1,2011-03-08T20:00:00Z,27.5400,-82.7400,11.0,3.1,210.0,,'1111122,1111122,1111122' 
COMPS,ioos:station:USF.COMPS:ANM:1,2011-03-08T21:00:00Z,27.5400,-82.7400,11.0,2.1,210.0,,'1111122,1111122,1111122' 
COMPS,ioos:station:USF.COMPS:ANM:1,2011-03-08T22:00:00Z,27.5400,-82.7400,11.0,1.5,280.0,,'1111122,1111122,1111122' 
COMPS,ioos:station:USF.COMPS:ANM:1,2011-03-08T23:00:00Z,27.5400,-82.7400,11.0,1.0,270.0,,'1111122,1111122,1111122' 
COMPS,ioos:station:USF.COMPS:ANM:1,2011-03-09T02:00:00Z,27.5400,-82.7400,11.0,7.2,80.0,,'1111122,1111122,1111122' 
COMPS,ioos:station:USF.COMPS:ANM:1,2011-03-09T03:00:00Z,27.5400,-82.7400,11.0,10.3,100.0,,'1111122,1111122,1111122' 
COMPS,ioos:station:USF.COMPS:ANM:1,2011-03-09T04:00:00Z,27.5400,-82.7400,11.0,9.3,110.0,,'1111122,1111122,1111122' 
COMPS,ioos:station:USF.COMPS:ANM:1,2011-03-09T05:00:00Z,27.5400,-82.7400,11.0,7.7,100.0,,'1111122,1111122,1111122' 
COMPS,ioos:station:USF.COMPS:ANM:1,2011-03-09T06:00:00Z,27.5400,-82.7400,11.0,7.7,100.0,,'1111122,1111122,1111122' 
COMPS,ioos:station:USF.COMPS:ANM:1,2011-03-09T07:00:00Z,27.5400,-82.7400,11.0,7.7,100.0,,'1111122,1111122,1111122' 
COMPS,ioos:station:USF.COMPS:ANM:1,2011-03-09T08:00:00Z,27.5400,-82.7400,11.0,8.2,100.0,,'1111122,1111122,1111122' 
COMPS,ioos:station:USF.COMPS:ANM:1,2011-03-09T09:00:00Z,27.5400,-82.7400,11.0,8.2,100.0,,'1111122,1111122,1111122' 
COMPS,ioos:station:USF.COMPS:ANM:1,2011-03-09T10:00:00Z,27.5400,-82.7400,11.0,8.7,110.0,,'1111122,1111122,1111122' 
COMPS,ioos:station:USF.COMPS:ANM:1,2011-03-09T11:00:00Z,27.5400,-82.7400,11.0,7.7,120.0,,'1111122,1111122,1111122' 
COMPS,ioos:station:USF.COMPS:ANM:1,2011-03-09T12:00:00Z,27.5400,-82.7400,11.0,6.7,120.0,,'1111122,1111122,1111122' 
COMPS,ioos:station:USF.COMPS:ANM:1,2011-03-09T13:00:00Z,27.5400,-82.7400,11.0,6.7,130.0,,'1111122,1111122,1111122' 
COMPS,ioos:station:USF.COMPS:ANM:1,2011-03-09T14:00:00Z,27.5400,-82.7400,11.0,7.7,130.0,,'1111122,1111122,1111122' 
COMPS,ioos:station:USF.COMPS:ANM:1,2011-03-09T15:00:00Z,27.5400,-82.7400,11.0,7.2,130.0,,'1111122,1111122,1111122' 
COMPS,ioos:station:USF.COMPS:ANM:1,2011-03-09T16:00:00Z,27.5400,-82.7400,11.0,5.7,160.0,,'1111122,1111122,1111122' 
COMPS,ioos:station:USF.COMPS:ANM:1,2011-03-09T17:00:00Z,27.5400,-82.7400,11.0,4.6,170.0,,'1111122,1111122,1111122' 
COMPS,ioos:station:USF.COMPS:ANM:1,2011-03-09T19:00:00Z,27.5400,-82.7400,11.0,5.7,170.0,,'1111122,1111122,1111122' 
COMPS,ioos:station:USF.COMPS:ANM:1,2011-03-09T20:00:00Z,27.5400,-82.7400,11.0,5.7,170.0,,'1111122,1111122,1111122' 
COMPS,ioos:station:USF.COMPS:ANM:1,2011-03-09T21:00:00Z,27.5400,-82.7400,11.0,4.1,180.0,,'1111122,1111122,1111122' 
COMPS,ioos:station:USF.COMPS:ANM:1,2011-03-09T22:00:00Z,27.5400,-82.7400,11.0,4.1,180.0,,'1111122,1111122,1111122' 